User: anonymous   Login
Location: Beuerbach
(48.1459°N, 10.9174°E)
Time: 16:45:48
(UTC+00:00)
Language:

Cosmos 1703 - Orbit

View from above orbital plane
View from above orbital plane
View from above satellite
View from above satellite

Ground track
Ground track

The orbit data is extracted from the following two-line orbital elements,

1 16262U 85108A   24195.80149853  .00011345  00000-0  45376-3 0  9990
2 16262  82.4692 220.7481 0007885  15.0116 345.1353 15.24941793109252
Epoch (UTC): 13 July 2024 19:14:09
Eccentricity: 0.0007885
inclination: 82.4692°
perigee height: 485 km
apogee height: 496 km
right ascension of ascending node: 220.7481°
argument of perigee: 15.0116°
revolutions per day: 15.24941793
mean anomaly at epoch: 345.1353°
orbit number at epoch: 10925

The dashed part of the orbit path shows where the satellite is in the earth's shadow,  

DLR